Dewpoint
-4 -2 -2 -3 -3 -3 0 6 11 12 14 15 16 16 14 15 16 16 12 9 9 10 10 11 11 12 13 13 13 15 14 13 14 15 16 15 15 16 15 14 15 14 14 14
-1 -1 -4 -6 -6 -3 -2 2 15 16 16 15 16 17 15 15 16 16 15 9 10 10 10 10 11 11 13 13 13 15 15 15 12 15 16 14 15 16 15 15 15 15 14 14
-1 -3 -5 -8 -7 -6 -2 -0 14 16 14 16 15 16 16 15 16 16 15 14 10 10 10 10 10 11 13 13 12 14 15 14 12 15 16 15 15 16 16 15 15 16 14 17
-5 -5 -6 -8 -7 -7 -3 3 13 14 15 17 13 17 16 15 15 15 15 15 12 11 10 10 10 12 12 12 12 14 14 14 14 16 15 13 15 15 16 14 15 14 14 15
-4 -7 -5 -7 -7 -8 -3 10 12 12 13 14 14 16 16 15 15 15 15 15 14 11 11 11 10 11 11 11 12 11 12 12 15 16 16 15 14 15 16 15 16 15 14 15
-6 -9 -8 -7 -9 -7 -3 -1 9 13 15 18 15 14 18 17 16 15 14 13 14 13 12 12 11 11 10 11 12 13 9 10 14 16 16 13 12 12 15 15 15 15 16 15
-3 -7 -7 -8 -4 -2 -0 1 7 10 17 15 12 13 15 16 13 14 13 13 16 14 13 13 12 12 11 11 12 13 9 10 13 14 16 14 15 15 15 14 14 14 15 16
-0 -1 -5 -5 -3 -0 2 1 8 13 8 5 8 17 17 14 15 15 14 16 16 16 15 13 13 13 12 12 12 12 11 7 12 10 14 14 14 15 13 14 15 15 15 16
3 -1 -4 -4 -3 1 3 3 1 7 3 5 16 17 15 14 14 14 15 15 15 16 15 14 15 14 13 13 13 12 11 7 8 11 11 12 12 14 14 14 16 15 15 15
2 3 -0 -1 -2 -1 0 -0 3 3 6 7 17 17 17 15 14 13 13 14 15 15 15 14 15 15 15 14 14 14 14 13 11 10 11 11 12 11 11 14 16 14 15 15
-0 2 3 -1 -0 2 1 1 1 1 3 5 16 17 14 14 13 13 12 13 14 15 15 15 16 13 15 15 15 15 15 15 16 14 14 12 12 12 13 12 15 16 14 14
-1 -0 5 1 -3 -5 -3 -2 1 5 4 8 14 16 14 13 12 12 11 12 13 14 14 15 16 16 16 16 15 15 15 14 15 16 14 15 13 13 12 12 13 15 15 14
-2 2 4 3 -2 -4 -3 -2 -2 -2 -2 3 8 16 13 12 12 11 11 11 12 13 13 14 15 15 15 15 15 13 12 12 9 9 13 15 15 15 13 12 12 13 13 11
-0 -3 3 5 4 1 -1 -2 -2 -2 1 12 15 15 13 12 11 11 10 10 11 12 13 13 13 14 14 15 15 14 13 11 10 12 16 15 15 16 15 15 16 14 14 14
-3 1 -0 -1 -1 -1 -5 -5 -3 -1 4 9 14 13 13 11 11 11 10 10 10 11 11 12 13 12 12 14 14 13 13 10 12 12 12 15 15 15 15 16 16 17 17 17
-2 1 0 1 -3 -4 -4 -5 -5 -4 10 12 13 13 10 11 11 10 10 9 9 8 8 10 10 11 12 12 11 12 13 14 15 15 16 14 12 13 15 15 16 17 17 17
1 3 4 2 1 -1 -2 -4 -4 -5 -5 10 13 12 11 11 10 10 9 8 7 7 6 6 6 6 9 9 11 12 12 11 12 13 14 15 15 16 15 16 15 15 16 17
0 2 3 4 2 3 -2 -3 -5 -5 -6 8 11 11 10 10 10 9 8 7 6 5 4 5 5 5 5 7 8 10 12 11 11 11 12 10 10 13 14 15 16 16 15 15
-3 -1 3 2 2 1 -1 -2 -4 -2 9 9 10 10 10 9 8 8 7 6 6 4 4 4 4 5 4 4 6 6 7 8 8 7 9 9 7 7 8 12 13 15 16 17
-3 -2 1 3 3 2 1 -3 -5 -4 11 9 9 9 9 7 9 7 6 6 4 4 3 2 3 4 4 3 4 5 7 6 4 2 1 -1 1 6 7 6 6 5 10 13
0 0 1 1 3 4 1 -2 -4 2 7 4 8 8 7 7 7 6 4 3 2 2 1 1 2 2 2 2 1 2 3 2 3 1 -1 -1 -0 -1 -0 5 5 2 3 3
5 4 4 1 1 6 1 2 7 5 7 8 8 6 4 3 4 3 2 2 1 1 1 1 2 2 2 2 0 -0 -1 1 -3 -6 -8 -8 -7 -6 -3 -2 -2 -2 -1 1
3 5 6 5 7 3 2 2 2 3 6 7 6 4 3 2 2 2 1 1 1 1 1 1 1 2 2 2 2 3 3 -1 -4 -5 -6 -9 -10 -10 -9 -7 -5 -2 0 3
0 -0 3 4 5 2 1 1 1 2 2 2 4 4 3 4 4 3 1 0 0 1 1 1 2 2 2 3 1 -0 -2 -6 -9 -13 -13 -10 -8 -6 -2 -1 -1 -0 3 6
4 2 2 2 0 -1 -0 1 1 0 1 -0 -0 -0 -1 -0 -0 -0 0 -0 0 1 1 2 2 3 3 3 0 -4 -6 -6 -7 -7 -8 -8 -5 -2 1 1 0 2 3 4
4 5 7 6 3 1 1 0 -0 -0 -1 -0 -1 -2 -2 -2 -1 -1 -0 -0 0 1 2 2 3 3 2 -2 -4 -4 -6 -5 -5 -5 -4 -2 -1 0 1 2 2 -1 -1 2
Wind_Speed
7 3 7 12 13 16 12 10 10 11 10 10 6 8 12 7 6 16 21 26 27 26 29 27 25 23 21 18 22 20 18 14 21 16 16 14 12 11 9 9 10 9 10 15
3 9 13 16 17 18 15 3 7 10 7 12 13 6 4 10 9 18 11 28 28 28 29 27 26 24 24 19 24 18 18 16 19 16 13 11 12 10 8 6 12 10 7 13
10 12 18 17 15 17 12 7 16 8 8 8 10 4 2 3 7 16 21 9 33 32 34 31 30 29 26 20 23 21 19 14 21 13 10 12 13 13 11 5 7 7 11 10
10 20 15 15 11 12 9 1 24 23 12 6 14 4 4 6 2 7 18 11 23 34 33 30 31 33 28 22 18 22 20 15 20 14 10 8 11 11 11 8 8 12 11 9
10 13 14 13 15 12 10 22 24 12 6 6 16 4 3 9 8 8 17 19 15 35 35 29 32 34 30 25 21 21 21 19 21 14 12 12 11 12 11 11 11 13 10 6
13 21 11 8 14 13 9 5 13 5 5 3 14 5 4 9 8 6 22 29 31 30 36 29 33 34 33 28 23 22 22 24 24 18 15 11 11 13 16 13 12 12 12 10
11 15 10 13 5 8 7 3 2 2 3 11 17 6 1 16 16 13 18 35 26 28 36 28 31 28 36 32 25 22 23 26 23 19 17 15 13 12 20 13 11 12 10 9
6 8 13 6 6 8 5 7 5 4 6 6 10 6 6 17 23 29 25 5 6 16 14 25 17 14 34 34 26 22 24 25 24 19 18 14 13 6 11 11 13 9 11 11
4 9 9 9 9 5 6 4 9 3 6 3 4 8 8 11 10 12 10 16 17 12 9 13 13 16 26 33 33 24 21 24 22 21 18 17 14 14 12 9 7 10 14 12
4 4 6 4 4 3 3 5 5 3 2 2 4 6 7 12 10 9 10 15 20 11 9 20 15 12 16 26 31 32 23 21 21 17 20 19 18 15 14 14 12 14 12 11
5 5 8 6 2 5 1 4 2 1 1 4 5 2 3 9 8 11 13 12 14 20 21 18 15 28 21 19 27 25 24 18 15 20 19 20 19 18 20 22 15 13 15 6
4 2 3 6 8 4 5 7 4 4 8 3 5 3 3 10 15 16 15 15 16 20 22 17 14 13 15 24 25 21 23 19 9 8 20 22 21 20 21 22 20 17 17 14
5 5 6 7 2 4 2 6 6 4 3 4 5 5 3 19 18 15 17 15 19 23 21 19 18 13 7 15 21 19 24 20 9 27 21 22 24 21 21 22 24 19 18 18
3 7 4 5 8 4 6 8 9 2 2 5 4 13 10 13 13 17 17 17 21 25 24 25 25 24 20 17 13 17 23 12 11 15 13 20 25 22 21 22 21 20 17 17
4 3 12 14 7 8 7 14 11 4 5 5 15 17 14 13 13 19 19 22 23 23 24 24 23 26 26 24 19 13 14 12 8 2 17 16 23 17 22 21 21 22 21 19
3 5 9 9 10 8 6 11 4 5 12 10 16 11 13 20 22 21 19 21 23 23 23 24 24 25 23 25 24 21 17 11 8 13 14 17 14 23 20 24 24 24 22 23
3 4 1 5 10 9 6 5 7 6 6 15 12 9 19 15 19 19 18 22 24 23 22 22 22 22 20 24 19 20 20 18 18 15 10 4 10 19 19 18 22 23 27 27
3 4 2 4 5 2 5 7 7 9 6 14 18 19 21 22 23 24 22 20 20 20 21 18 20 22 15 17 19 18 17 14 13 14 13 12 11 5 1 6 8 9 17 24
3 3 3 2 3 4 9 6 6 5 7 20 23 21 25 26 24 15 21 22 18 17 17 16 11 11 15 12 14 14 11 6 7 10 9 9 10 10 7 5 3 10 12 13
4 5 3 3 3 1 3 10 18 5 5 13 27 22 30 31 11 8 23 20 18 14 12 12 10 9 5 6 8 9 5 2 3 4 5 5 5 6 6 7 6 7 4 6
1 2 1 4 2 4 6 14 16 4 3 8 24 30 31 10 15 30 25 21 15 11 11 8 4 6 6 4 3 3 1 3 5 6 6 5 4 3 4 5 7 8 7 7
1 3 2 2 2 3 9 9 5 4 22 28 30 29 31 26 30 30 24 19 16 13 11 7 4 5 3 3 3 3 4 7 8 8 9 10 10 9 9 9 9 10 10 10
1 4 2 4 2 9 17 13 12 21 21 23 30 31 31 28 22 20 21 18 15 12 9 4 3 3 2 4 4 4 7 10 11 11 11 11 10 11 12 12 12 12 12 12
4 6 1 4 6 6 17 11 10 10 15 17 19 21 19 21 22 22 17 15 15 12 10 6 6 2 3 7 8 8 11 11 11 11 11 11 10 9 8 9 10 11 11 11
4 3 1 0 2 3 12 10 6 5 8 8 9 11 13 21 20 18 17 17 11 9 8 6 4 3 4 9 11 11 11 12 11 11 11 10 10 11 13 13 14 13 12 12
4 2 3 2 9 5 5 2 14 12 8 9 10 11 11 9 14 14 12 11 10 10 8 5 5 7 10 10 8 10 12 12 12 12 10 10 11 12 13 14 16 15 17 20
Wind_Direction
192 131 215 239 243 249 256 222 153 139 151 113 141 152 177 124 99 257 208 181 173 158 156 159 161 169 178 177 155 169 170 169 156 151 134 141 152 142 128 142 138 142 159 176
195 222 232 227 242 249 259 269 63 62 52 36 128 129 169 161 164 237 285 177 168 161 163 164 168 176 186 179 166 174 185 183 161 149 161 159 150 154 149 126 153 160 171 153
220 237 224 241 236 248 246 227 155 189 89 68 120 81 189 176 159 248 261 283 174 173 169 171 174 180 183 184 179 190 191 191 167 168 170 176 164 152 155 148 151 147 160 146
229 254 228 236 248 239 246 176 121 135 119 158 233 170 237 192 235 271 283 289 179 177 174 176 180 178 185 191 193 192 198 188 162 172 187 174 157 149 168 152 137 128 160 171
245 244 252 218 246 241 249 137 141 145 138 115 212 127 217 152 178 219 259 268 243 174 178 184 184 185 190 197 200 196 196 182 178 179 184 194 185 167 158 164 156 156 162 163
237 240 247 228 240 244 278 220 148 120 88 266 212 147 201 166 183 174 247 248 240 193 183 189 186 190 192 197 198 193 191 181 185 181 193 194 187 181 174 168 169 169 171 172
249 252 248 251 244 290 270 208 230 124 127 241 190 182 150 142 145 157 250 260 250 195 186 198 189 189 193 190 197 193 193 182 192 190 190 184 180 181 184 178 174 164 170 189
221 252 249 214 211 225 264 193 169 136 246 244 146 124 144 132 146 155 174 346 39 199 167 191 207 173 187 190 199 193 193 186 188 194 188 188 199 158 180 159 164 173 196 202
305 224 292 187 216 127 300 236 223 277 276 104 121 87 105 133 140 145 142 150 49 58 194 207 212 187 194 191 196 202 189 190 191 193 194 196 210 191 170 175 183 190 199 218
292 332 308 294 153 39 54 299 359 336 290 29 134 143 141 162 146 109 85 69 97 72 130 193 216 208 187 178 187 196 198 200 195 195 202 202 205 210 203 203 209 216 223 222
21 353 302 51 257 165 288 311 310 122 149 179 158 106 294 122 114 112 94 86 85 91 95 153 168 183 212 179 176 182 189 184 196 197 214 217 208 209 207 212 198 212 221 213
16 280 304 225 228 227 256 267 247 132 289 74 104 112 360 111 110 110 109 106 95 97 97 105 116 165 187 153 167 180 189 199 229 223 225 221 217 210 212 214 215 218 228 222
350 352 337 300 355 18 245 286 272 294 305 287 137 138 142 117 117 109 101 97 100 97 88 91 96 97 129 177 180 186 209 210 271 285 253 220 221 213 211 215 220 217 219 229
160 21 122 240 248 307 300 258 274 269 33 104 70 127 141 126 117 115 112 104 98 98 96 88 85 85 85 113 141 180 178 167 231 247 277 226 217 211 221 223 214 215 213 218
87 54 317 313 233 271 336 330 244 275 67 108 161 153 153 136 129 126 125 118 102 103 99 97 91 83 80 86 94 124 176 198 157 235 261 250 217 218 216 219 223 218 217 229
72 122 305 308 334 349 315 325 266 324 98 92 125 123 135 138 130 132 137 124 114 103 100 102 100 97 88 83 83 90 104 126 166 207 221 234 242 264 234 217 214 216 218 222
74 101 41 276 339 351 341 308 355 7 50 140 142 156 148 143 140 141 131 111 110 113 106 102 98 89 103 91 91 80 77 84 88 88 98 151 204 222 237 240 223 214 219 220
57 96 140 292 360 312 277 51 27 2 348 111 122 140 145 143 142 139 135 126 114 106 103 102 98 92 87 104 99 96 84 78 78 82 81 82 71 80 218 266 263 235 224 227
40 58 336 152 185 256 356 14 26 73 56 130 134 140 143 136 128 133 133 128 123 110 105 95 101 115 94 94 107 106 99 104 91 85 80 67 61 62 55 49 340 265 254 258
42 118 118 339 292 299 78 32 6 3 55 136 141 140 141 138 127 138 131 128 127 129 123 108 111 114 123 81 104 112 118 111 65 52 48 52 47 46 35 42 33 8 352 286
23 359 182 288 267 44 20 21 343 53 279 268 144 142 149 141 157 143 142 134 125 119 114 120 112 83 62 50 63 76 333 336 334 322 318 316 323 324 330 329 330 338 343 342
339 149 222 312 344 161 16 29 63 82 77 108 109 115 102 102 124 128 126 128 127 117 116 125 118 76 62 341 348 347 335 325 313 311 309 309 309 306 304 304 305 312 323 329
293 130 136 114 179 96 86 82 57 80 102 117 124 125 120 119 119 127 130 140 140 145 141 139 108 106 336 331 330 315 308 301 304 311 309 305 302 307 308 303 301 300 311 321
217 60 82 71 356 136 104 104 75 75 90 104 127 142 142 147 151 158 156 149 145 143 141 145 146 102 336 310 310 311 302 309 311 307 311 321 324 324 324 318 319 312 299 296
350 81 116 180 359 46 117 143 155 123 123 118 126 138 132 149 156 162 160 160 153 154 165 173 141 178 252 283 310 313 316 319 318 320 318 310 303 303 302 298 296 289 275 285
20 143 14 217 37 84 15 13 169 180 176 181 180 164 174 173 161 166 164 162 165 175 185 161 200 246 275 299 312 316 320 326 320 323 320 322 314 306 307 303 298 283 274 263
Height
1484 1494 1503 1493 1485 1479 1477 1478 1486 1484 1492 1502 1510 1515 1515 1517 1523 1527 1529 1532 1535 1538 1541 1546 1551 1556 1561 1566 1570 1575 1576 1578 1581 1582 1583 1586 1587 1590 1592 1593 1595 1596 1597 1600
1489 1497 1484 1480 1477 1476 1476 1483 1504 1500 1502 1507 1514 1523 1522 1521 1523 1525 1528 1528 1532 1537 1542 1547 1551 1555 1560 1565 1569 1573 1576 1578 1581 1582 1584 1586 1589 1590 1593 1594 1595 1597 1598 1600
1490 1479 1474 1476 1475 1476 1475 1482 1491 1503 1512 1517 1520 1531 1530 1526 1528 1530 1527 1529 1529 1533 1539 1545 1550 1552 1558 1563 1567 1570 1573 1577 1580 1583 1584 1587 1588 1589 1592 1593 1594 1597 1600 1601
1480 1468 1472 1471 1473 1469 1485 1463 1484 1502 1510 1532 1517 1547 1533 1527 1524 1530 1529 1525 1526 1531 1537 1543 1548 1551 1555 1560 1564 1568 1572 1575 1579 1582 1584 1586 1587 1589 1592 1594 1596 1598 1600 1602
1478 1468 1468 1469 1465 1460 1470 1466 1479 1489 1504 1503 1513 1529 1522 1523 1528 1528 1527 1525 1529 1529 1534 1541 1545 1548 1553 1558 1562 1565 1570 1574 1579 1582 1584 1585 1587 1589 1591 1593 1596 1599 1600 1602
1465 1459 1457 1459 1455 1454 1454 1461 1480 1492 1509 1535 1502 1507 1531 1523 1520 1520 1522 1529 1529 1530 1531 1539 1544 1548 1552 1557 1561 1564 1567 1571 1576 1579 1582 1585 1587 1589 1592 1594 1595 1598 1601 1602
1464 1460 1453 1453 1457 1453 1457 1470 1507 1513 1538 1527 1482 1504 1509 1519 1523 1522 1536 1534 1531 1526 1530 1538 1544 1548 1551 1555 1560 1563 1566 1571 1574 1577 1581 1583 1585 1588 1591 1592 1595 1598 1600 1601
1483 1486 1457 1449 1456 1466 1464 1472 1502 1521 1513 1498 1475 1519 1522 1521 1530 1530 1526 1520 1526 1524 1527 1535 1541 1548 1549 1552 1556 1561 1565 1570 1575 1577 1580 1583 1585 1588 1592 1593 1595 1598 1599 1600
1478 1472 1448 1445 1449 1456 1463 1475 1460 1491 1480 1493 1511 1517 1517 1518 1526 1529 1531 1519 1527 1528 1530 1535 1538 1544 1550 1553 1555 1561 1564 1569 1574 1576 1579 1582 1585 1588 1591 1592 1595 1598 1599 1600
1467 1485 1452 1444 1447 1451 1459 1462 1487 1485 1503 1510 1517 1518 1524 1523 1524 1527 1528 1531 1527 1531 1528 1530 1535 1540 1550 1547 1552 1560 1566 1571 1574 1576 1579 1580 1583 1586 1588 1591 1594 1595 1597 1597
1466 1479 1471 1455 1460 1465 1469 1476 1473 1476 1484 1507 1524 1533 1511 1520 1525 1530 1533 1536 1538 1537 1532 1533 1539 1544 1548 1549 1548 1556 1561 1565 1571 1574 1580 1580 1581 1584 1588 1590 1593 1593 1594 1596
1473 1479 1481 1471 1455 1453 1458 1468 1471 1499 1499 1489 1505 1535 1523 1524 1532 1536 1537 1538 1539 1538 1541 1538 1539 1543 1546 1542 1546 1554 1556 1561 1568 1570 1574 1576 1579 1582 1585 1587 1590 1593 1594 1596
1481 1493 1504 1483 1468 1458 1465 1464 1465 1470 1472 1486 1501 1531 1526 1522 1528 1537 1537 1539 1539 1539 1539 1539 1539 1539 1541 1543 1548 1555 1557 1560 1565 1567 1571 1572 1575 1579 1582 1585 1587 1589 1591 1592
1481 1490 1500 1518 1497 1479 1478 1469 1465 1469 1490 1504 1511 1525 1527 1526 1529 1536 1538 1541 1539 1539 1541 1540 1540 1542 1544 1545 1548 1551 1552 1556 1557 1559 1568 1570 1572 1575 1581 1582 1583 1584 1588 1591
1482 1504 1499 1491 1475 1473 1472 1470 1464 1472 1477 1493 1513 1515 1523 1527 1529 1536 1541 1541 1541 1543 1543 1544 1545 1546 1548 1547 1549 1552 1554 1558 1561 1561 1565 1570 1569 1570 1574 1577 1578 1579 1583 1587
1482 1502 1498 1498 1475 1470 1476 1470 1460 1468 1478 1490 1502 1519 1519 1525 1530 1535 1539 1540 1542 1545 1545 1548 1550 1551 1551 1553 1555 1557 1557 1559 1563 1565 1566 1568 1567 1569 1571 1571 1574 1575 1578 1580
1487 1496 1505 1505 1487 1484 1494 1476 1475 1473 1472 1483 1507 1506 1516 1524 1528 1532 1535 1540 1544 1549 1551 1552 1553 1553 1554 1557 1557 1558 1559 1561 1561 1561 1562 1564 1564 1566 1568 1567 1568 1571 1574 1574
1489 1494 1499 1505 1496 1515 1486 1471 1472 1477 1474 1477 1491 1503 1513 1522 1528 1532 1537 1541 1547 1551 1553 1555 1556 1555 1556 1558 1559 1561 1561 1560 1561 1562 1562 1563 1565 1564 1565 1566 1565 1567 1569 1571
1486 1494 1506 1512 1508 1495 1486 1480 1481 1485 1493 1485 1494 1506 1514 1522 1530 1538 1541 1542 1548 1553 1555 1557 1557 1557 1557 1558 1560 1561 1562 1562 1562 1562 1563 1563 1562 1563 1565 1563 1564 1565 1566 1565
1489 1493 1507 1508 1508 1509 1495 1484 1484 1483 1512 1496 1496 1503 1512 1522 1532 1540 1542 1545 1549 1553 1556 1558 1557 1557 1557 1558 1559 1560 1559 1560 1561 1561 1562 1563 1562 1563 1563 1562 1563 1565 1562 1563
1502 1503 1510 1511 1508 1503 1494 1490 1488 1506 1519 1503 1499 1503 1512 1519 1523 1531 1538 1545 1550 1554 1557 1558 1558 1558 1559 1559 1559 1558 1559 1560 1560 1561 1561 1561 1562 1562 1561 1561 1561 1561 1561 1561
1506 1512 1514 1509 1509 1518 1497 1497 1508 1511 1505 1503 1507 1511 1517 1523 1527 1531 1537 1543 1548 1553 1556 1557 1558 1559 1559 1559 1559 1558 1558 1558 1557 1558 1558 1558 1558 1557 1558 1558 1558 1558 1558 1557
1515 1505 1511 1512 1514 1504 1503 1506 1508 1510 1512 1512 1512 1517 1518 1524 1532 1538 1540 1544 1549 1551 1554 1556 1557 1558 1558 1558 1557 1556 1555 1555 1555 1555 1555 1555 1555 1555 1555 1554 1554 1554 1554 1553
1499 1499 1505 1507 1512 1504 1505 1508 1511 1513 1517 1518 1519 1520 1522 1526 1530 1539 1543 1545 1547 1550 1552 1554 1556 1557 1557 1556 1556 1555 1554 1552 1551 1551 1551 1551 1552 1552 1551 1551 1552 1552 1553 1552
1505 1502 1503 1506 1506 1506 1508 1510 1512 1514 1517 1520 1523 1525 1527 1530 1534 1538 1541 1542 1544 1546 1550 1552 1554 1555 1555 1555 1554 1553 1552 1551 1550 1549 1548 1547 1546 1546 1547 1547 1547 1547 1547 1548
1508 1512 1515 1515 1509 1508 1509 1510 1511 1514 1518 1520 1523 1526 1529 1531 1533 1536 1538 1540 1542 1545 1548 1550 1552 1553 1553 1553 1552 1550 1549 1549 1547 1547 1547 1546 1545 1544 1543 1542 1541 1542 1542 1542